When you browse on this site, cookies collect data to enhance your experience and personalize the content and advertising you see.
Visit our Privacy Policy to learn more. By continuing to use the site, you agree to this use of cookies and data.
  • In United Kingdom
  • List of Countries
  • For 7 days
  • Water Temperature
  • Weather Map
  • Weather Widgets
  • user-avatar
    Login

    Hourly Weather Zamosc

    Today, 16 October, Wednesday

    Time Temperature Precipitation Wind Pressure Humidity
    00:00 +13°C° 0 mm 3 mps 734 mmHg 69%
    01:00 +13°C° 0 mm 3 mps 734 mmHg 69%
    02:00 +13°C° 0 mm 3 mps 734 mmHg 69%
    03:00 +12°C° 0 mm 3 mps 733 mmHg 68%
    04:00 +12°C° 0 mm 4 mps 733 mmHg 67%
    05:00 +12°C° 0 mm 4 mps 733 mmHg 66%
    06:00 +12°C° 0 mm 4 mps 733 mmHg 66%
    07:00 +13°C° 0 mm 4 mps 733 mmHg 66%
    08:00 +13°C° 0 mm 5 mps 733 mmHg 64%
    09:00 +15°C° 0 mm 5 mps 734 mmHg 58%
    10:00 +19°C° 0 mm 6 mps 734 mmHg 52%
    11:00 +21°C° 0 mm 6 mps 734 mmHg 46%
    12:00 +22°C° 0 mm 6 mps 734 mmHg 45%
    13:00 +23°C° 0 mm 6 mps 734 mmHg 43%
    14:00 +23°C° 0 mm 6 mps 734 mmHg 42%
    15:00 +22°C° 0 mm 5 mps 734 mmHg 48%
    16:00 +21°C° 0 mm 4 mps 734 mmHg 54%
    17:00 +19°C° 0 mm 3 mps 734 mmHg 59%
    18:00 +18°C° 0 mm 3 mps 734 mmHg 63%
    19:00 +17°C° 0 mm 3 mps 735 mmHg 67%
    20:00 +16°C° 0 mm 3 mps 735 mmHg 71%
    21:00 +14°C° 0 mm 3 mps 735 mmHg 75%
    22:00 +14°C° 0 mm 3 mps 736 mmHg 80%
    23:00 +15°C° 0 mm 2 mps 736 mmHg 84%

    Tomorrow, 17 October, Thursday

    Time Temperature Precipitation Wind Pressure Humidity
    00:00 +14°C° 0 mm 2 mps 736 mmHg 84%
    01:00 +14°C° 0 mm 2 mps 736 mmHg 85%
    02:00 +14°C° 0 mm 2 mps 737 mmHg 86%
    03:00 +13°C° 0 mm 2 mps 737 mmHg 87%
    04:00 +12°C° 0 mm 2 mps 737 mmHg 88%
    05:00 +10°C° 0 mm 2 mps 737 mmHg 89%
    06:00 +10°C° 0 mm 2 mps 737 mmHg 87%
    07:00 +10°C° 0 mm 2 mps 737 mmHg 85%
    08:00 +10°C° 0 mm 2 mps 737 mmHg 83%
    09:00 +13°C° 0 mm 2 mps 738 mmHg 74%
    10:00 +15°C° 0 mm 2 mps 738 mmHg 65%
    11:00 +16°C° 0 mm 2 mps 738 mmHg 56%
    12:00 +17°C° 0 mm 2 mps 738 mmHg 53%
    13:00 +18°C° 0 mm 2 mps 738 mmHg 50%
    14:00 +19°C° 0 mm 2 mps 738 mmHg 47%
    15:00 +18°C° 0 mm 2 mps 738 mmHg 51%
    16:00 +18°C° 0 mm 1 mps 738 mmHg 55%
    17:00 +16°C° 0 mm 1 mps 737 mmHg 60%
    18:00 +15°C° 0 mm 1 mps 737 mmHg 62%
    19:00 +14°C° 0 mm 1 mps 738 mmHg 65%
    20:00 +13°C° 0 mm 1 mps 738 mmHg 67%
    21:00 +13°C° 0 mm 1 mps 738 mmHg 70%
    22:00 +13°C° 0 mm 1 mps 738 mmHg 72%
    23:00 +12°C° 0 mm 1 mps 738 mmHg 74%

    Day after tomorrow, 18 October, Friday

    Time Temperature Precipitation Wind Pressure Humidity
    00:00 +12°C° 0 mm 1 mps 738 mmHg 77%
    01:00 +12°C° 0 mm 1 mps 738 mmHg 80%
    02:00 +12°C° 0 mm 1 mps 737 mmHg 84%
    03:00 +11°C° 0 mm 1 mps 737 mmHg 86%
    04:00 +11°C° 0 mm 1 mps 737 mmHg 88%
    05:00 +10°C° 0 mm 2 mps 737 mmHg 90%
    06:00 +10°C° 0 mm 2 mps 737 mmHg 90%
    07:00 +10°C° 0 mm 2 mps 737 mmHg 90%
    08:00 +10°C° 0 mm 2 mps 737 mmHg 90%
    09:00 +13°C° 0 mm 2 mps 737 mmHg 80%
    10:00 +15°C° 0 mm 2 mps 737 mmHg 71%
    11:00 +17°C° 0 mm 2 mps 737 mmHg 61%
    12:00 +18°C° 0 mm 2 mps 737 mmHg 57%
    13:00 +19°C° 0 mm 2 mps 737 mmHg 53%
    14:00 +20°C° 0 mm 2 mps 737 mmHg 49%
    15:00 +20°C° 0 mm 1 mps 737 mmHg 54%
    16:00 +19°C° 0 mm 1 mps 736 mmHg 59%
    17:00 +18°C° 0 mm 1 mps 736 mmHg 64%
    18:00 +18°C° 0 mm 1 mps 736 mmHg 66%
    19:00 +16°C° 0 mm 1 mps 736 mmHg 68%
    20:00 +15°C° 0 mm 1 mps 736 mmHg 71%
    21:00 +15°C° 0 mm 1 mps 736 mmHg 73%
    22:00 +14°C° 0 mm 1 mps 736 mmHg 75%
    23:00 +14°C° 0 mm 1 mps 736 mmHg 77%

    19 October, Saturday

    Time Temperature Precipitation Wind Pressure Humidity
    00:00 +13°C° 0 mm 1 mps 736 mmHg 78%
    01:00 +13°C° 0 mm 1 mps 736 mmHg 80%
    02:00 +13°C° 0 mm 1 mps 735 mmHg 81%
    03:00 +13°C° 0 mm 1 mps 735 mmHg 82%
    04:00 +13°C° 0 mm 1 mps 735 mmHg 82%
    05:00 +13°C° 0 mm 1 mps 735 mmHg 83%
    06:00 +13°C° 0 mm 1 mps 735 mmHg 83%
    07:00 +13°C° 0 mm 2 mps 735 mmHg 82%
    08:00 +13°C° 0 mm 2 mps 735 mmHg 82%
    09:00 +15°C° 0 mm 2 mps 735 mmHg 74%
    10:00 +17°C° 0 mm 3 mps 736 mmHg 66%
    11:00 +19°C° 0 mm 3 mps 736 mmHg 59%
    12:00 +20°C° 0 mm 4 mps 735 mmHg 56%
    13:00 +21°C° 0 mm 4 mps 735 mmHg 52%
    14:00 +22°C° 0 mm 5 mps 735 mmHg 49%
    15:00 +21°C° 0 mm 4 mps 735 mmHg 53%
    16:00 +19°C° 0 mm 3 mps 735 mmHg 58%
    17:00 +18°C° 0 mm 3 mps 734 mmHg 62%
    18:00 +17°C° 0 mm 3 mps 735 mmHg 65%
    19:00 +17°C° 0 mm 3 mps 735 mmHg 68%
    20:00 +16°C° 0 mm 3 mps 735 mmHg 70%
    21:00 +14°C° 0 mm 3 mps 735 mmHg 71%
    22:00 +14°C° 0 mm 3 mps 735 mmHg 72%
    23:00 +13°C° 0 mm 3 mps 735 mmHg 73%

    20 October, Sunday

    Time Temperature Precipitation Wind Pressure Humidity
    00:00 +13°C° 0 mm 3 mps 735 mmHg 73%
    01:00 +13°C° 0 mm 3 mps 735 mmHg 73%
    02:00 +13°C° 0 mm 3 mps 735 mmHg 73%
    03:00 +13°C° 0 mm 3 mps 735 mmHg 73%
    04:00 +13°C° 0 mm 3 mps 735 mmHg 73%
    05:00 +12°C° 0 mm 3 mps 735 mmHg 72%
    06:00 +13°C° 0 mm 4 mps 735 mmHg 72%
    07:00 +13°C° 0 mm 4 mps 735 mmHg 71%
    08:00 +13°C° 0 mm 4 mps 736 mmHg 70%
    09:00 +15°C° 0 mm 5 mps 736 mmHg 63%
    10:00 +19°C° 0 mm 5 mps 736 mmHg 56%
    11:00 +21°C° 0 mm 6 mps 736 mmHg 49%
    12:00 +22°C° 0 mm 6 mps 736 mmHg 47%
    13:00 +22°C° 0 mm 6 mps 736 mmHg 44%
    14:00 +23°C° 0 mm 6 mps 736 mmHg 42%
    15:00 +22°C° 0 mm 6 mps 736 mmHg 46%
    16:00 +21°C° 0 mm 5 mps 736 mmHg 51%
    17:00 +20°C° 0 mm 4 mps 736 mmHg 55%
    18:00 +19°C° 0 mm 4 mps 736 mmHg 58%
    19:00 +18°C° 0 mm 4 mps 736 mmHg 60%
    20:00 +17°C° 0 mm 4 mps 737 mmHg 62%
    21:00 +15°C° 0 mm 4 mps 737 mmHg 66%
    22:00 +14°C° 0 mm 3 mps 737 mmHg 69%
    23:00 +13°C° 0 mm 3 mps 738 mmHg 73%

    21 October, Monday

    Time Temperature Precipitation Wind Pressure Humidity
    00:00 +14°C° 0 mm 2 mps 738 mmHg 75%
    01:00 +14°C° 0 mm 2 mps 738 mmHg 77%
    02:00 +13°C° 0 mm 2 mps 738 mmHg 79%
    03:00 +13°C° 0 mm 2 mps 738 mmHg 79%
    04:00 +13°C° 0 mm 2 mps 738 mmHg 79%
    05:00 +13°C° 0 mm 2 mps 739 mmHg 79%
    06:00 +13°C° 0 mm 2 mps 739 mmHg 78%
    07:00 +13°C° 0 mm 2 mps 739 mmHg 77%
    08:00 +13°C° 0 mm 2 mps 739 mmHg 76%
    09:00 +15°C° 0 mm 2 mps 739 mmHg 68%
    10:00 +17°C° 0 mm 2 mps 740 mmHg 61%
    11:00 +19°C° 0 mm 2 mps 740 mmHg 54%
    12:00 +20°C° 0 mm 2 mps 740 mmHg 51%
    13:00 +21°C° 0 mm 2 mps 740 mmHg 48%
    14:00 +23°C° 0 mm 2 mps 740 mmHg 45%
    15:00 +21°C° 0 mm 2 mps 740 mmHg 49%
    16:00 +21°C° 0 mm 1 mps 740 mmHg 54%
    17:00 +20°C° 0 mm 1 mps 740 mmHg 58%
    18:00 +19°C° 0 mm 1 mps 740 mmHg 61%
    19:00 +18°C° 0 mm 1 mps 740 mmHg 64%
    20:00 +16°C° 0 mm 1 mps 740 mmHg 67%
    21:00 +15°C° 0 mm 1 mps 740 mmHg 68%
    22:00 +15°C° 0 mm 1 mps 740 mmHg 70%
    23:00 +15°C° 0 mm 1 mps 740 mmHg 72%
    Show more